Temp
-3 -3 -3 -3 -3 -4 -4 -4 -5 -5 -6 -6 -7 -7 -7 -8 -8 -9 -9 -10 -10 -10 -10 -10 -10 -10 -10 -10 -10 -9 -9 -9 -9 -9 -9 -9 -9 -8 -8 -9 -9 -9 -9
-2 -2 -3 -3 -3 -3 -4 -4 -4 -5 -5 -6 -6 -7 -7 -8 -8 -8 -9 -9 -9 -10 -10 -10 -10 -10 -10 -10 -10 -9 -9 -9 -9 -9 -9 -9 -9 -9 -9 -8 -8 -8 -8
-2 -2 -3 -3 -3 -3 -4 -4 -4 -4 -5 -5 -6 -6 -7 -8 -8 -8 -9 -9 -9 -9 -10 -10 -10 -10 -11 -10 -10 -10 -10 -10 -9 -9 -9 -9 -9 -9 -9 -9 -9 -9 -9
-2 -2 -2 -3 -3 -3 -3 -3 -4 -4 -5 -5 -6 -6 -6 -7 -8 -8 -9 -9 -9 -9 -9 -10 -10 -10 -11 -11 -11 -10 -10 -10 -10 -9 -9 -9 -9 -9 -9 -9 -9 -9 -9
-2 -2 -2 -3 -3 -3 -3 -3 -4 -4 -4 -5 -5 -6 -6 -7 -7 -7 -8 -9 -9 -9 -9 -9 -9 -10 -10 -10 -11 -11 -11 -11 -10 -10 -10 -10 -10 -10 -9 -9 -9 -9 -9
-2 -2 -2 -3 -3 -3 -3 -3 -4 -4 -4 -5 -5 -6 -6 -7 -7 -7 -8 -8 -8 -9 -9 -9 -9 -10 -10 -10 -10 -11 -11 -11 -10 -10 -10 -10 -10 -10 -9 -9 -9 -8 -9
-2 -2 -3 -3 -3 -3 -3 -3 -4 -4 -4 -5 -5 -6 -6 -6 -6 -7 -7 -7 -8 -8 -9 -9 -9 -9 -10 -10 -10 -10 -11 -11 -10 -10 -10 -10 -9 -9 -9 -9 -9 -9 -9
-2 -2 -2 -3 -3 -3 -3 -4 -4 -4 -5 -5 -5 -5 -6 -6 -6 -7 -7 -7 -8 -8 -8 -8 -9 -9 -9 -10 -10 -10 -10 -10 -10 -10 -10 -10 -10 -10 -10 -10 -10 -9 -9
-2 -2 -2 -3 -3 -4 -4 -4 -4 -4 -4 -5 -5 -5 -6 -6 -6 -6 -7 -7 -7 -8 -8 -9 -9 -9 -9 -10 -10 -10 -10 -10 -10 -10 -10 -10 -10 -10 -10 -10 -10 -10 -10
-2 -2 -2 -2 -3 -3 -3 -4 -4 -4 -4 -5 -5 -5 -6 -6 -6 -6 -7 -7 -7 -8 -8 -8 -9 -9 -9 -9 -9 -10 -10 -10 -10 -10 -10 -10 -10 -10 -10 -10 -10 -10 -10
-1 -1 -2 -2 -2 -2 -3 -3 -4 -4 -4 -5 -5 -5 -6 -6 -6 -6 -7 -7 -7 -7 -8 -8 -8 -9 -9 -9 -9 -9 -9 -9 -10 -10 -10 -10 -10 -10 -10 -10 -10 -10 -10
-1 -1 -1 -2 -2 -2 -2 -3 -3 -4 -4 -5 -5 -6 -6 -6 -6 -7 -7 -7 -7 -8 -8 -8 -8 -8 -9 -9 -9 -9 -9 -9 -10 -10 -10 -10 -10 -10 -10 -10 -10 -10 -10
-0 -1 -1 -1 -2 -2 -2 -3 -3 -4 -4 -5 -5 -6 -6 -6 -7 -7 -7 -7 -8 -8 -9 -9 -9 -9 -9 -9 -9 -9 -9 -9 -10 -10 -10 -10 -10 -10 -10 -10 -10 -10 -11
-1 -1 -1 -2 -2 -2 -3 -3 -4 -4 -4 -5 -5 -6 -6 -6 -6 -7 -7 -7 -8 -9 -9 -10 -9 -8 -9 -9 -9 -9 -9 -9 -10 -10 -10 -10 -10 -10 -10 -10 -10 -11 -11
-0 -1 -1 -2 -2 -3 -3 -3 -4 -4 -5 -5 -5 -6 -6 -6 -6 -7 -7 -8 -8 -9 -9 -10 -9 -10 -9 -11 -10 -9 -9 -9 -9 -10 -10 -10 -10 -10 -10 -10 -11 -11 -11
0 -0 -1 -1 -2 -2 -3 -3 -4 -4 -5 -5 -5 -5 -6 -6 -7 -7 -8 -8 -8 -9 -9 -10 -10 -10 -10 -10 -10 -11 -10 -9 -9 -9 -9 -10 -10 -10 -10 -10 -10 -10 -10
1 0 -0 -1 -2 -2 -3 -3 -4 -4 -4 -5 -5 -5 -6 -6 -6 -7 -8 -8 -9 -9 -10 -10 -11 -10 -10 -10 -10 -10 -10 -10 -9 -9 -9 -9 -10 -10 -10 -10 -10 -10 -10
1 0 -0 -1 -1 -2 -2 -3 -4 -4 -5 -5 -5 -5 -6 -6 -6 -7 -7 -8 -9 -10 -10 -11 -11 -11 -11 -10 -11 -10 -10 -10 -10 -9 -9 -9 -9 -9 -9 -9 -10 -9 -10
2 1 1 -0 -1 -2 -2 -3 -3 -3 -4 -4 -5 -5 -5 -6 -6 -7 -7 -8 -9 -10 -10 -11 -11 -11 -11 -11 -11 -11 -10 -10 -10 -9 -9 -9 -9 -9 -9 -9 -9 -10 -10
3 2 2 1 0 -1 -2 -2 -3 -3 -3 -3 -3 -4 -5 -5 -6 -6 -7 -8 -9 -10 -10 -11 -11 -11 -11 -11 -11 -11 -10 -10 -11 -10 -10 -9 -9 -9 -9 -10 -9 -9 -10
3 3 3 2 1 0 -0 -1 -2 -2 -3 -2 -3 -3 -3 -3 -4 -5 -6 -7 -8 -9 -10 -11 -11 -11 -11 -11 -11 -11 -11 -10 -11 -10 -10 -10 -10 -10 -10 -10 -9 -9 -9
4 3 3 2 2 1 0 -0 -0 -1 -1 -1 -2 -2 -2 -3 -3 -4 -5 -7 -8 -9 -10 -11 -11 -11 -11 -11 -11 -11 -11 -10 -10 -10 -10 -10 -10 -9 -9 -9 -9 -9 -9
4 3 3 3 2 2 1 1 0 0 -0 -1 -1 -1 -2 -3 -3 -4 -5 -6 -7 -8 -9 -10 -11 -11 -11 -11 -11 -10 -10 -10 -10 -10 -10 -10 -10 -9 -9 -9 -9 -9 -9
3 3 3 3 2 2 1 1 1 0 0 -1 -1 -1 -2 -2 -3 -4 -5 -6 -7 -8 -9 -10 -11 -11 -11 -11 -10 -10 -10 -10 -10 -10 -10 -10 -10 -9 -9 -9 -9 -9 -9
3 3 3 2 2 2 1 1 1 0 -0 -1 -1 -1 -2 -3 -3 -4 -4 -6 -6 -7 -9 -10 -10 -11 -11 -11 -10 -10 -10 -10 -10 -10 -10 -10 -10 -10 -9 -9 -9 -9 -9
3 3 3 2 2 2 1 1 1 0 -0 -1 -1 -2 -2 -3 -3 -4 -4 -6 -7 -7 -8 -10 -10 -10 -10 -10 -10 -10 -10 -10 -10 -10 -10 -10 -10 -10 -10 -10 -9 -9 -9
Height
3090 3087 3084 3079 3074 3069 3064 3059 3053 3047 3041 3034 3027 3020 3013 3007 2999 2993 2987 2982 2976 2972 2968 2965 2962 2960 2959 2958 2957 2956 2956 2956 2957 2959 2961 2963 2966 2969 2972 2974 2977 2980 2984
3091 3087 3084 3080 3074 3070 3065 3060 3054 3048 3042 3036 3029 3022 3016 3009 3003 2997 2990 2983 2978 2974 2969 2965 2962 2960 2958 2957 2956 2956 2956 2956 2956 2956 2958 2961 2963 2966 2968 2970 2973 2975 2977
3091 3088 3084 3079 3075 3071 3066 3061 3055 3049 3043 3038 3032 3026 3020 3013 3006 2999 2992 2986 2981 2976 2971 2967 2963 2960 2958 2957 2956 2955 2955 2955 2955 2955 2956 2957 2959 2962 2964 2965 2968 2970 2972
3091 3087 3083 3080 3076 3072 3068 3062 3056 3051 3045 3039 3033 3027 3021 3015 3009 3002 2995 2990 2985 2979 2974 2969 2965 2962 2959 2957 2957 2956 2955 2955 2954 2955 2955 2956 2957 2958 2960 2961 2963 2964 2966
3090 3086 3083 3079 3077 3073 3068 3063 3058 3053 3047 3041 3035 3028 3022 3016 3009 3004 3000 2994 2988 2983 2977 2972 2968 2963 2960 2957 2956 2955 2955 2954 2954 2953 2953 2953 2954 2955 2955 2957 2958 2959 2961
3089 3086 3083 3079 3076 3072 3069 3064 3059 3054 3048 3043 3037 3031 3025 3019 3012 3008 3002 2997 2992 2986 2982 2977 2971 2967 2963 2959 2956 2954 2952 2952 2951 2951 2951 2950 2951 2951 2951 2952 2953 2954 2956
3087 3085 3081 3078 3075 3072 3069 3065 3060 3055 3051 3045 3039 3033 3028 3022 3016 3010 3004 2999 2995 2990 2984 2979 2975 2971 2966 2962 2958 2955 2952 2949 2947 2947 2947 2946 2946 2946 2946 2946 2946 2947 2948
3085 3083 3080 3077 3075 3072 3069 3065 3060 3056 3052 3047 3041 3035 3030 3024 3018 3013 3007 3002 2996 2992 2987 2982 2977 2972 2969 2964 2960 2956 2953 2948 2946 2944 2943 2942 2942 2942 2942 2941 2941 2942 2942
3083 3081 3079 3076 3074 3071 3068 3065 3061 3057 3053 3047 3042 3037 3031 3026 3020 3015 3009 3004 2999 2994 2989 2984 2980 2975 2970 2966 2962 2958 2955 2950 2947 2944 2942 2940 2939 2938 2937 2937 2936 2936 2936
3082 3080 3078 3075 3072 3069 3067 3063 3060 3057 3053 3048 3042 3037 3032 3026 3022 3017 3011 3006 3002 2997 2991 2987 2982 2977 2973 2968 2964 2961 2957 2954 2950 2946 2942 2939 2937 2935 2934 2933 2932 2931 2930
3080 3078 3077 3074 3072 3069 3066 3062 3059 3055 3052 3048 3043 3037 3032 3027 3022 3017 3012 3008 3003 2997 2993 2989 2984 2980 2974 2970 2966 2962 2958 2955 2951 2948 2945 2941 2938 2935 2933 2931 2930 2928 2927
3076 3075 3074 3072 3070 3068 3065 3061 3057 3053 3049 3045 3041 3036 3031 3026 3022 3017 3012 3007 3002 2998 2994 2989 2985 2980 2976 2971 2967 2963 2960 2956 2952 2949 2946 2942 2939 2936 2934 2931 2929 2927 2925
3073 3072 3070 3068 3066 3065 3062 3059 3055 3052 3048 3044 3039 3035 3030 3026 3021 3017 3011 3006 3001 2996 2993 2988 2984 2979 2975 2971 2967 2964 2960 2957 2954 2950 2947 2944 2941 2938 2935 2932 2929 2926 2923
3069 3067 3066 3064 3062 3060 3058 3055 3053 3050 3046 3042 3038 3033 3028 3023 3019 3015 3010 3004 2999 2994 2990 2986 2983 2977 2973 2970 2966 2963 2960 2957 2954 2951 2948 2945 2942 2939 2936 2933 2930 2927 2923
3064 3063 3062 3061 3058 3056 3054 3052 3049 3045 3042 3038 3034 3030 3027 3022 3016 3011 3005 3000 2995 2991 2986 2982 2979 2975 2971 2968 2965 2961 2958 2955 2953 2950 2947 2944 2942 2939 2936 2932 2928 2925 2921
3061 3059 3058 3057 3055 3053 3050 3048 3045 3042 3039 3035 3030 3026 3022 3017 3011 3006 3001 2995 2990 2986 2982 2979 2976 2973 2969 2965 2962 2960 2957 2954 2951 2948 2945 2943 2940 2938 2934 2930 2926 2922 2918
3056 3055 3054 3053 3051 3048 3046 3044 3042 3038 3035 3031 3026 3021 3017 3012 3007 3002 2996 2989 2985 2981 2977 2974 2971 2968 2965 2961 2959 2957 2955 2953 2950 2947 2944 2941 2938 2935 2932 2928 2924 2920 2916
3051 3050 3049 3047 3046 3043 3041 3038 3036 3034 3031 3026 3021 3017 3013 3008 3002 2997 2992 2985 2980 2975 2971 2969 2966 2963 2961 2958 2956 2954 2952 2951 2948 2945 2943 2939 2937 2934 2930 2927 2922 2918 2914
3047 3046 3044 3043 3040 3038 3036 3034 3032 3029 3026 3022 3018 3014 3010 3004 2997 2992 2986 2981 2975 2971 2967 2963 2960 2959 2956 2954 2953 2951 2950 2948 2946 2944 2941 2938 2935 2932 2929 2925 2921 2916 2912
3043 3041 3040 3038 3035 3033 3031 3029 3027 3024 3021 3017 3013 3010 3006 3000 2994 2989 2983 2979 2972 2967 2963 2959 2957 2954 2952 2950 2949 2948 2946 2944 2943 2941 2938 2936 2933 2930 2927 2923 2919 2915 2910
3039 3037 3035 3033 3031 3029 3027 3025 3023 3020 3017 3013 3010 3006 3002 2997 2992 2987 2980 2976 2970 2964 2960 2957 2954 2951 2949 2947 2947 2945 2944 2942 2940 2939 2936 2934 2931 2928 2925 2921 2917 2913 2908
3034 3033 3031 3029 3027 3025 3023 3021 3019 3016 3013 3010 3007 3003 2999 2995 2989 2984 2978 2973 2967 2962 2958 2955 2953 2950 2948 2946 2944 2943 2941 2939 2938 2936 2934 2932 2929 2927 2923 2920 2916 2911 2907
3029 3028 3027 3025 3023 3021 3020 3018 3016 3013 3010 3007 3004 3001 2996 2992 2988 2983 2977 2971 2966 2961 2958 2955 2952 2949 2947 2944 2943 2941 2940 2938 2935 2934 2933 2931 2928 2925 2921 2918 2915 2910 2905
3025 3024 3022 3021 3020 3018 3016 3014 3013 3010 3007 3005 3002 2999 2994 2990 2986 2981 2975 2970 2965 2961 2957 2955 2953 2950 2947 2944 2942 2940 2939 2937 2934 2932 2931 2928 2926 2924 2921 2917 2913 2909 2905
3019 3019 3017 3016 3016 3014 3013 3011 3009 3007 3005 3002 2999 2996 2992 2988 2985 2980 2975 2970 2965 2961 2958 2956 2953 2950 2947 2944 2942 2940 2938 2936 2934 2931 2929 2927 2925 2922 2919 2916 2913 2909 2905
3013 3013 3013 3012 3012 3011 3009 3008 3006 3004 3002 3000 2997 2995 2991 2987 2984 2979 2974 2969 2965 2961 2958 2956 2953 2951 2948 2945 2942 2940 2937 2935 2933 2931 2929 2927 2924 2921 2918 2914 2911 2908 2904
Wind_Speed
14 17 20 21 23 25 26 27 27 27 28 27 28 30 30 29 29 27 24 23 21 18 17 15 14 11 8 8 8 7 3 6 14 17 18 17 16 15 17 20 26 30 31
14 17 19 21 22 23 25 26 27 27 28 28 27 27 27 28 29 29 28 27 24 21 19 17 15 13 9 6 6 6 5 3 5 9 17 20 20 19 19 20 21 21 26
13 16 18 20 20 21 23 24 26 28 28 28 28 26 25 25 26 29 31 30 28 26 23 20 18 15 9 8 6 5 5 6 5 6 9 11 14 19 23 23 21 20 22
13 15 16 17 18 19 21 23 25 26 27 29 28 27 28 27 27 28 29 29 29 26 25 23 20 18 17 12 8 8 6 7 7 7 7 8 10 12 13 19 22 25 28
11 12 14 15 16 19 21 23 24 26 27 28 28 29 29 29 30 29 27 27 29 29 25 23 23 21 19 17 11 10 9 9 8 6 5 5 6 8 10 12 16 18 22
10 11 12 14 15 17 19 21 23 25 26 27 27 28 28 27 27 27 27 27 27 27 27 25 23 21 19 18 15 13 11 12 10 12 12 13 13 13 14 15 15 17 18
7 8 10 12 14 16 18 20 22 24 24 26 27 27 27 28 28 27 26 26 26 26 25 24 23 22 21 19 19 17 13 11 10 10 11 13 15 18 17 16 19 20 18
5 7 8 11 13 15 17 18 20 22 23 24 25 27 27 28 29 28 28 27 26 25 25 24 24 23 21 21 21 22 21 16 10 8 9 10 11 13 14 17 20 20 21
6 7 9 11 13 15 16 18 19 21 22 23 24 25 27 28 28 28 28 27 26 25 24 23 23 24 24 22 21 20 20 21 20 16 11 10 10 11 10 12 15 16 19
9 10 11 12 14 15 16 17 18 19 20 21 23 25 26 28 29 29 28 27 26 25 24 23 22 22 22 23 23 20 17 17 18 19 19 17 12 11 11 11 12 13 14
11 12 13 14 15 16 17 17 17 18 19 21 22 23 25 26 28 29 29 28 26 25 24 23 21 20 20 20 21 23 21 19 18 17 17 17 16 16 14 13 12 12 13
12 13 14 15 16 17 18 19 20 20 21 22 23 25 25 26 27 28 29 29 28 26 24 23 22 20 20 19 19 18 19 20 20 18 17 17 17 17 16 14 13 13 13
14 14 15 16 16 17 19 20 21 22 23 24 25 26 27 28 28 28 29 29 29 26 24 22 20 21 20 19 18 17 17 16 16 18 17 17 17 17 17 18 17 17 16
15 15 16 17 18 18 19 20 21 23 24 26 27 27 29 30 30 30 30 30 30 29 26 24 24 22 19 20 19 18 16 15 15 14 15 15 15 15 16 16 17 17 19
18 18 18 18 20 21 21 22 22 23 24 25 27 29 29 30 32 32 32 32 31 30 28 26 24 23 22 15 19 18 18 17 16 15 15 14 16 16 17 17 18 18 18
20 20 20 20 21 23 24 24 25 25 26 27 29 31 31 33 33 34 33 34 33 31 29 25 25 23 22 21 14 12 16 16 17 17 17 17 16 17 18 19 19 20 20
21 22 22 22 23 23 24 25 25 29 29 30 30 31 33 33 34 34 34 35 34 31 29 26 22 21 18 20 18 16 10 13 14 15 16 17 17 19 19 21 21 21 20
21 22 22 23 24 25 25 26 27 27 27 30 33 33 32 34 34 34 33 33 33 32 29 25 20 18 16 16 15 16 15 11 14 14 15 16 17 18 18 20 21 22 22
20 21 21 22 23 24 25 26 26 28 29 30 30 31 32 33 33 34 35 34 32 31 29 26 21 17 14 14 13 13 13 12 11 12 14 15 17 18 19 19 20 22 23
18 19 19 20 21 22 23 24 24 25 26 28 28 28 28 30 30 31 33 32 31 30 28 24 19 15 12 12 11 9 11 12 10 12 13 14 16 18 19 20 21 22 22
16 18 17 17 19 20 21 21 21 22 23 24 25 25 27 27 28 29 30 30 30 28 26 22 18 13 11 10 9 7 8 11 10 10 12 13 15 16 18 19 20 22 23
16 17 17 17 18 18 18 18 18 19 20 21 22 23 25 27 28 28 29 29 29 28 25 21 17 13 10 9 7 7 7 9 10 7 11 13 14 16 17 18 19 20 22
16 15 17 16 16 16 16 16 16 17 19 20 21 22 23 25 26 27 27 27 26 26 23 20 17 14 11 9 7 6 6 9 9 6 9 12 14 15 17 18 19 20 21
16 15 15 16 15 15 14 14 14 16 18 19 20 21 22 23 24 25 26 25 25 23 21 19 16 14 11 9 8 7 8 9 10 8 7 10 13 15 17 18 20 21 21
17 16 14 15 15 13 13 13 14 15 17 18 18 20 21 22 23 24 25 24 23 22 19 17 15 13 11 9 8 8 9 11 11 9 8 10 13 14 16 17 18 19 20
17 16 15 14 15 13 13 13 14 15 16 17 17 19 20 21 22 23 23 22 22 20 18 16 14 13 11 10 9 10 10 10 12 11 10 10 12 14 16 16 17 18 20
Wind_Direction
11 12 14 17 17 16 17 17 16 16 17 18 17 19 21 22 22 25 23 19 14 10 3 359 359 350 327 322 331 341 319 242 234 227 228 230 230 228 229 235 240 243 246
10 13 13 17 17 18 18 17 17 18 18 21 21 20 19 24 25 25 25 25 23 20 19 14 12 11 353 330 325 330 332 309 257 241 238 236 238 241 244 244 239 236 239
14 13 12 18 16 16 19 19 17 17 18 20 20 22 23 23 27 26 27 25 21 22 24 22 18 18 7 346 330 330 326 325 315 285 265 253 243 241 245 249 247 242 241
17 15 12 15 15 15 17 18 18 17 16 17 18 19 22 22 25 27 26 24 23 22 24 26 27 19 12 5 360 346 337 331 316 312 305 288 274 264 254 246 251 254 252
18 18 13 13 14 14 16 16 15 17 16 16 15 16 18 19 21 25 23 23 24 24 25 28 27 27 21 15 2 352 348 340 347 331 309 295 293 290 280 267 261 257 253
16 15 13 9 13 14 15 12 11 14 15 14 14 15 17 18 19 19 21 22 23 24 25 26 29 29 30 25 12 358 335 314 308 301 295 288 286 281 278 273 270 268 262
6 8 4 6 9 8 10 7 7 10 11 12 11 12 14 16 18 17 18 18 20 21 23 26 24 23 24 28 31 23 0 335 325 316 306 298 286 277 274 274 271 270 272
342 342 344 351 359 0 2 0 1 4 6 9 8 9 12 13 14 15 15 14 13 15 17 21 25 24 16 17 16 21 25 21 4 336 319 315 309 295 290 280 271 271 269
309 320 328 334 343 350 353 353 355 359 3 5 6 8 9 10 11 13 10 11 10 11 10 12 17 21 24 19 14 12 13 20 30 25 5 343 325 316 312 298 290 284 273
304 310 317 325 331 337 343 347 349 353 357 1 3 5 6 7 6 7 7 6 8 8 7 8 8 11 13 20 23 20 15 15 19 20 26 28 11 354 338 320 308 303 296
300 308 316 321 326 330 335 339 343 346 351 355 358 359 0 1 1 359 0 1 3 4 6 5 4 4 7 9 14 20 21 21 18 17 16 17 17 16 14 5 350 328 315
291 300 310 317 320 324 329 333 337 340 344 348 350 350 352 352 353 351 351 350 354 358 2 1 2 4 4 5 6 10 14 20 19 17 14 13 14 16 13 9 3 355 347
283 293 302 308 312 318 323 327 330 333 337 339 341 341 341 342 342 342 340 340 343 348 351 355 0 1 2 2 2 2 4 6 9 17 19 20 21 21 21 20 15 10 4
277 283 289 297 303 308 313 318 322 325 328 330 331 333 332 332 332 333 331 331 333 337 342 343 350 349 359 359 359 359 360 0 0 2 2 5 8 7 5 5 6 6 359
276 281 286 290 295 301 306 310 314 316 319 321 322 323 323 324 325 326 328 327 327 329 333 338 346 347 340 346 352 353 354 355 358 358 356 355 352 351 348 345 345 346 346
280 283 286 291 295 300 305 308 310 312 314 316 317 319 322 323 325 326 327 325 326 327 328 333 337 343 342 344 333 346 348 349 351 353 352 353 355 355 350 347 348 348 348
278 283 287 291 293 297 301 304 306 311 314 313 315 317 321 322 324 326 327 326 327 329 329 332 333 334 336 335 347 337 340 349 348 350 350 350 354 354 354 351 349 347 347
282 283 286 289 293 296 299 302 306 309 310 311 315 319 322 323 324 325 327 329 331 333 333 335 335 334 335 326 342 349 339 340 349 347 348 348 353 353 353 352 349 347 344
291 289 290 292 293 295 299 302 307 311 314 315 317 319 323 324 326 328 330 334 335 336 338 340 340 340 333 325 338 350 352 338 337 344 347 348 350 352 351 351 351 348 347
295 294 298 298 297 299 301 305 310 313 315 317 322 325 326 327 328 330 331 335 337 341 344 346 346 347 333 323 334 340 342 345 329 336 342 345 346 349 349 351 351 352 351
296 297 300 302 303 305 308 312 315 318 320 323 327 331 333 333 334 336 336 340 344 349 352 354 355 354 340 333 337 339 333 340 338 329 339 343 344 346 348 351 353 353 353
292 297 300 301 305 308 314 319 324 327 328 330 333 336 338 337 338 341 341 345 349 352 358 0 4 4 355 349 349 335 334 337 338 326 336 339 342 344 347 353 354 356 356
286 292 296 298 302 308 316 322 328 330 330 333 335 337 340 338 341 343 344 348 352 356 359 5 7 6 6 7 5 343 337 339 339 332 334 339 344 347 348 350 356 359 359
280 285 290 294 299 305 314 319 325 327 326 330 334 337 338 340 344 346 347 352 355 359 1 6 7 6 8 9 1 353 343 344 342 335 334 342 345 348 350 352 354 356 359
274 278 284 289 293 300 307 313 318 319 323 327 333 336 338 342 346 349 351 355 359 2 2 5 5 4 5 4 356 354 348 342 344 336 336 339 342 348 351 354 354 355 357
267 271 276 283 287 293 299 305 309 315 320 324 333 336 338 345 349 352 354 357 1 3 2 3 1 1 358 357 351 351 347 343 342 337 332 335 339 344 348 353 354 356 356